Regional Weather Roundup
Issued by NWS

Home | Current Version | Previous Version | Text Only | Print | Product List | Glossary Off
Versions: 1 2 3 4 5 6 7 8 9 10 11 12 13 14 15 16 17 18 19 20 21 22 23 24 25 26 27 28 29 30 31 32 33 34 35 36 37 38 39 40 41 42 43 44 45 46 47 48 49 50

000
ASUS43 KLOT 190004
RWRIL

ILLINOIS REGIONAL WEATHER ROUNDUP
NATIONAL WEATHER SERVICE CHICAGO/ROMEOVILLE IL
700 PM CDT WED OCT 18 2017

NOTE: "FAIR" INDICATES FEW OR NO CLOUDS BELOW 12,000 FEET WITH NO
SIGNIFICANT WEATHER AND/OR OBSTRUCTIONS TO VISIBILITY.

* THESE STATIONS ARE NOT UNDER NWS QUALITY CONTROL. THEY ALSO MAY NOT
  REPORT WEATHER SUCH AS PRECIPITATION OR FOG.

ILZ001-002-007-009-015-016-024-190100-
NORTHWEST ILLINOIS

CITY           SKY/WX    TMP DP  RH WIND       PRES   REMARKS
MOLINE         CLEAR     65  43  44 S7        29.99R
6HR MIN TEMP:  65; 6HR MAX TEMP:  74;

STERLING*      CLEAR     64  46  52 VRB5        N/A
$$

ILZ003-004-008-010-011-017-018-190100-
NORTH CENTRAL ILLINOIS

CITY           SKY/WX    TMP DP  RH WIND       PRES   REMARKS
ROCKFORD       MOCLDY    60  44  55 S13       30.00F
6HR MIN TEMP:  60; 6HR MAX TEMP:  72;

FREEPORT*      CLEAR     60  44  54 S7        30.00S
ROCHELLE*      CLEAR     58  43  56 S6        30.02F
$$

ILZ005-006-012>014-019>023-190100-
NORTHEAST ILLINOIS

CITY           SKY/WX    TMP DP  RH WIND       PRES   REMARKS
CHICAGO-OHARE  PTCLDY    66  41  40 S12       30.03R
6HR MIN TEMP:  66; 6HR MAX TEMP:  71;

CHICAGO-MIDWAY PTCLDY    66  41  40 SW13G18   30.04R
6HR MIN TEMP:  66; 6HR MAX TEMP:  71;

AURORA         CLEAR     63  42  46 S9        30.04R
6HR MIN TEMP:  62; 6HR MAX TEMP:  72;

LANSING*       CLEAR     61  44  54 S10       30.06R
JOLIET*        CLEAR     65  43  44 S9        30.06R
WAUKEGAN       CLEAR     64  42  44 S13       30.00R
6HR MIN TEMP:  62; 6HR MAX TEMP:  71;

DUPAGE AIRPORT CLEAR     60  44  55 S8        30.03R
6HR MIN TEMP:  60; 6HR MAX TEMP:  71;

KANKAKEE*      CLEAR     62  42  48 S9        30.09R
WHEELING       CLEAR     67  42  40 S9        30.04R
6HR MIN TEMP:  67; 6HR MAX TEMP:  72;

NORTHERLY ISL    N/A     67  37  33 S14         N/A
$$

LMZ740>746-190100-
SOUTHERN LAKE MICHIGAN

STATION/POSITION SKY/WX   TEMP    WIND        PRES    VSBY  WAVE
                          AIR SEA DIR/SP/G                  HT/PER
                          (F)     (DEG/KT/KT) (MB)    (MI)  (FT/S)
SOUTHERN BUOY              64 61  180/ 21/ 23 1015.4          4/ 5
WILMETTE HARBOR            65 58  200/ 10/ 14   N/A           2/ 4
HARRISON CRIB              68     200/ 22/ 23   N/A
BURNHAM HARBOR             67     200/ 13/ 17   N/A
CALUMET HARBOR             67     180/ 12/ 17 1016.2F
BURNS HARBOR               65     190/ 13/ 16 1017.9S
MICHIGAN CITY              64     170/ 12/ 14   N/A
MICHIGAN CITY 6N           63 58  190/ 10/ 14   N/A           2/ 3
ST. JOSEPH                 62 58  190/ 12/ 14 1017.8R         2/ 4
$$

ILZ025>027-034>036-040-047-049-050-058-095>099-190100-
WEST-CENTRAL ILLINOIS

CITY           SKY/WX    TMP DP  RH WIND       PRES   REMARKS
QUINCY         CLEAR     66  42  41 S9        30.03S
GALESBURG*     CLEAR     62  45  54 SE6       30.03S
MACOMB*        CLEAR     60  43  53 S7        30.05S
JACKSONVILLE*  CLEAR     64  45  50 S7        30.07S
$$

ILZ028>032-037-038-041>044-048-051>054-059>061-190100-
CENTRAL ILLINOIS

CITY           SKY/WX    TMP DP  RH WIND       PRES   REMARKS
BLOOMINGTON    CLEAR     59  45  59 S13       30.08S
DECATUR        CLEAR     63  44  50 S10       30.11R
PEORIA         CLEAR     63  44  50 S10       30.05R
6HR MIN TEMP:  63; 6HR MAX TEMP:  71;

LACON*         CLEAR     61  45  55 S6        30.04R
LINCOLN*       CLEAR     64  46  51 S6        30.08R
SPRINGFIELD    CLEAR     66  47  50 S9        30.08S
6HR MIN TEMP:  66; 6HR MAX TEMP:  74;

TAYLORVILLE    NOT AVBL
$$

ILZ033-039-045-046-055>057-062-063-190100-
EAST-CENTRAL ILLINOIS

CITY           SKY/WX    TMP DP  RH WIND       PRES   REMARKS
CHAMPAIGN      CLEAR     63  44  50 S13       30.11R
DANVILLE*      CLEAR     59  45  58 S9        30.10S
MATTOON        CLEAR     63  48  58 S7        30.12R
PARIS*         CLEAR     53  45  73 S7        30.15R
$$

ILZ079-100>102-190100-
SOUTHWEST ILLINOIS

CITY           SKY/WX    TMP DP  RH WIND       PRES   REMARKS
ALTON          CLEAR     59  48  67 SE7       30.11R
BELLEVILLE     CLEAR     62  47  56 SE8       30.14
CAHOKIA*       CLEAR     67  44  43 S6        30.11R
SPARTA*        CLEAR     65  46  51 CALM      30.14R
$$

ILZ064>066-069>071-074>076-080>082-084>086-088>090-092>094-190100-
SOUTH-CENTRAL ILLINOIS

CITY           SKY/WX    TMP DP  RH WIND       PRES   REMARKS
CARBONDALE     CLEAR     62  48  60 S8        30.16R
6HR MIN TEMP:  62; 6HR MAX TEMP:  73;

MARION         CLEAR     61  48  63 S12       30.17R
MT. VERNON     CLEAR     62  47  57 S8        30.15S
CENTRALIA*     CLEAR     61  48  62 S6        30.14R
SALEM*         CLEAR     64  47  53 S3        30.15R
$$

ILZ067-068-072-073-078-083-087-091-190100-
SOUTHEAST ILLINOIS

CITY           SKY/WX    TMP DP  RH WIND       PRES   REMARKS
LAWRENCEVILLE  CLEAR     58  48  69 S7        30.16S
FLORA*         CLEAR     59  47  64 S7        30.15R
FAIRFIELD*     CLEAR     62  46  56 S3        30.15R
HARRISBURG*    CLEAR     59  47  66 S5        30.17S
ROBINSON*      CLEAR     58  45  62 S5        30.16S
CARMI*         CLEAR     57  47  68 S7        30.17R
$$

ABBREVIATIONS USED IN REMARKS
   TC - TEMPERATURE IN CELSIUS
  WCI - WIND CHILL INDEX
   HX - HEAT INDEX
  VSB - VISIBILITY
$$





USA.gov is the U.S. government's official web portal to all federal, state and local government web resources and services.